Tracking 19489 objects as of 22-Jan-2019
HD Live streaming from Space Station
objects crossing your sky now

COSMOS 2172

Track COSMOS 2172 now!
COSMOS 2172 is classified as:


NORAD ID: 21789
Int'l Code: 1991-079A
Perigee: 35,736.6 km
Apogee: 35,817.0 km
Inclination: 15.0 °
Period: 1,435.2 minutes
Semi major axis: 42147 km
RCS: 5.0118 m2 (large)
Launch date: November 22, 1991
Source: Commonwealth of Independent States (former USSR) (CIS)
Launch site: TYURATAM MISSILE AND SPACE COMPLEX (TTMTR)
aabbcc
Your satellite tracking list
Your tracking list is empty




NASA's NSSDC Master Catalog

Two Line Element Set (TLE):
1 21789U 91079A   19021.36800013 +.00000096 +00000-0 +00000-0 0  9992
2 21789 015.0052 002.8395 0009539 313.6412 133.4330 01.00332130104583
Source of the keplerian elements: AFSPC